GW1293 Weather Reports


time (UTC)temp
C
wind
direction
speed
KPH
gust
KPH
rain 1hr
cm
rain 24hr
cm
rain mn
cm
humidity
%
barometer
mb
20260506234909 12 130 0.0 0.0 0.00 0.69 0.69 59 1016.1
20260506234408 12 120 1.6 3.2 0.00 0.69 0.69 57 1015.8
20260506233905 12 149 0.0 0.0 0.00 0.69 0.69 58 1015.9
20260506233400 12 58 1.6 3.2 0.00 0.69 0.69 58 1015.8
20260506232858 12 136 0.0 0.0 0.00 0.69 0.69 61 1015.8
20260506232354 12 113 0.0 0.0 0.00 0.69 0.69 66 1015.9
20260506231850 12 146 0.0 0.0 0.00 0.69 0.69 63 1016.1
20260506231348 12 131 0.0 0.0 0.00 0.69 0.69 60 1016.2
20260506230845 13 169 0.0 0.0 0.00 0.69 0.69 61 1016.3
20260506230341 13 143 0.0 0.0 0.00 0.69 0.69 61 1016.4
20260506225837 13 138 0.0 0.0 0.00 0.69 0.69 61 1016.4
20260506225335 13 136 0.0 0.0 0.00 0.69 0.69 58 1016.4
20260506224827 13 117 0.0 0.0 0.00 0.69 0.69 60 1016.3
20260506224324 12 122 0.0 0.0 0.00 0.69 0.69 59 1016.2
20260506223820 12 146 0.0 0.0 0.00 0.69 0.69 59 1016.3
20260506223315 12 127 0.0 0.0 0.00 0.69 0.69 57 1016.5
20260506222813 13 142 0.0 0.0 0.00 0.69 0.69 62 1016.6
20260506222308 13 122 0.0 0.0 0.00 0.69 0.69 59 1016.4
20260506221806 13 106 0.0 0.0 0.00 0.69 0.69 59 1016.4
20260506221303 13 181 0.0 0.0 0.00 0.69 0.69 61 1016.3
20260506220801 13 154 0.0 0.0 0.00 0.69 0.69 60 1016.0
20260506220256 13 290 1.6 3.2 0.00 0.69 0.69 57 1016.0
20260506215753 13 144 0.0 0.0 0.00 0.69 0.69 57 1015.8
20260506215249 13 167 0.0 0.0 0.00 0.69 0.69 57 1015.9
20260506214745 13 130 0.0 0.0 0.00 0.69 0.69 57 1016.0
20260506214242 13 99 1.6 3.2 0.00 0.69 0.69 55 1015.8
20260506213740 13 142 0.0 0.0 0.00 0.69 0.69 59 1015.5
20260506213231 13 134 0.0 0.0 0.00 0.69 0.69 58 1015.5
20260506212728 13 291 0.0 3.2 0.00 0.69 0.69 58 1015.6
20260506212223 13 332 3.2 4.8 0.00 0.69 0.69 55 1015.7
20260506211714 13 171 1.6 1.6 0.00 0.69 0.69 56 1015.5
20260506211210 13 187 1.6 3.2 0.00 0.69 0.69 59 1015.5
20260506210707 13 135 0.0 0.0 0.00 0.69 0.69 59 1015.5
20260506210204 13 84 0.0 0.0 0.00 0.69 0.69 57 1015.4
20260506205701 13 153 0.0 0.0 0.00 0.69 0.69 58 1015.6
20260506205156 13 101 0.0 1.6 0.00 0.69 0.69 58 1015.5
20260506204654 13 138 0.0 0.0 0.00 0.69 0.69 64 1015.5
20260506204151 13 138 0.0 0.0 0.00 0.69 0.69 62 1015.6
20260506203649 13 145 0.0 0.0 0.00 0.69 0.69 59 1015.6
20260506203146 13 139 1.6 3.2 0.00 0.69 0.69 57 1015.1
20260506202644 14 122 0.0 0.0 0.00 0.69 0.69 56 1015.4
20260506202139 13 150 0.0 0.0 0.00 0.69 0.69 56 1015.3
20260506201637 13 145 0.0 1.6 0.00 0.69 0.69 57 1015.4
20260506201133 13 142 0.0 0.0 0.00 0.69 0.69 56 1015.3
20260506200630 13 139 1.6 4.8 0.00 0.69 0.69 60 1015.4
20260506200127 13 83 3.2 3.2 0.00 0.69 0.69 58 1015.2
20260506195623 13 72 1.6 1.6 0.00 0.69 0.69 61 1015.4
20260506195119 13 138 0.0 1.6 0.00 0.69 0.69 58 1015.1
20260506194617 13 7 3.2 8.0 0.00 0.69 0.69 55 1015.1
20260506194113 13 119 0.0 1.6 0.00 0.69 0.69 57 1015.2
20260506193611 13 79 1.6 1.6 0.00 0.69 0.69 60 1015.2
20260506193108 13 139 0.0 0.0 0.00 0.69 0.69 61 1015.2
20260506192605 13 340 4.8 8.0 0.00 0.69 0.69 56 1015.3
20260506192101 13 292 4.8 9.7 0.00 0.69 0.69 56 1015.1
20260506191557 14 327 8.0 9.7 0.00 0.69 0.69 53 1015.2
20260506191053 15 137 1.6 3.2 0.00 0.69 0.69 55 1015.0
20260506190551 15 55 4.8 8.0 0.00 0.69 0.69 53 1015.0
20260506190048 15 194 1.6 3.2 0.00 0.69 0.69 54 1014.9
20260506185545 15 139 1.6 1.6 0.00 0.69 0.69 52 1015.1
20260506185042 15 299 1.6 3.2 0.00 0.69 0.69 53 1014.9
20260506184539 15 180 0.0 1.6 0.00 0.69 0.69 56 1014.9
20260506184036 15 183 3.2 4.8 0.00 0.69 0.69 53 1014.9
20260506183532 15 285 0.0 1.6 0.00 0.69 0.69 56 1014.9
20260506183029 15 27 0.0 1.6 0.00 0.69 0.69 56 1015.2
20260506182526 15 180 0.0 3.2 0.00 0.69 0.69 53 1015.4
20260506182023 15 76 3.2 4.8 0.00 0.69 0.69 52 1015.2
20260506181521 16 298 1.6 4.8 0.00 0.69 0.69 58 1015.1
20260506181018 15 270 1.6 3.2 0.00 0.69 0.69 55 1015.3
20260506180514 15 136 0.0 0.0 0.00 0.69 0.69 54 1015.1
20260506180011 15 92 0.0 0.0 0.00 0.69 0.69 54 1015.1
20260506175508 15 122 0.0 0.0 0.00 0.69 0.69 55 1015.2
20260506175004 15 188 0.0 1.6 0.00 0.69 0.69 57 1015.3
20260506174502 15 148 0.0 0.0 0.00 0.69 0.69 59 1015.4
20260506173958 15 324 1.6 3.2 0.00 0.69 0.69 58 1015.4
20260506173456 14 133 0.0 0.0 0.00 0.69 0.69 60 1015.4
20260506172952 13 119 1.6 1.6 0.00 0.69 0.69 58 1015.4
20260506172450 15 329 6.4 11.3 0.00 0.69 0.69 55 1015.5
20260506171946 15 141 0.0 0.0 0.00 0.69 0.69 62 1015.3
20260506171444 14 106 3.2 3.2 0.00 0.69 0.69 60 1015.1
20260506170941 13 152 1.6 3.2 0.00 0.69 0.69 60 1015.2
20260506170437 14 219 4.8 8.0 0.00 0.69 0.69 58 1015.5
20260506165930 14 199 3.2 3.2 0.00 0.69 0.69 58 1015.4
20260506165428 15 93 3.2 4.8 0.00 0.69 0.69 64 1015.2
20260506164918 13 161 0.0 1.6 0.00 0.69 0.69 59 1015.1
20260506164414 13 162 1.6 3.2 0.00 0.69 0.69 59 1015.3
20260506163908 13 349 9.7 12.9 0.00 0.69 0.69 59 1015.5
20260506163401 13 92 1.6 1.6 0.00 0.69 0.69 61 1015.6
20260506162856 14 257 3.2 3.2 0.00 0.69 0.69 59 1015.7
20260506162354 13 138 1.6 1.6 0.00 0.69 0.69 61 1015.7
20260506161847 13 79 1.6 3.2 0.00 0.69 0.69 61 1015.5
20260506161344 13 141 0.0 0.0 0.00 0.69 0.69 68 1015.4
20260506160842 13 183 1.6 1.6 0.00 0.69 0.69 65 1015.4
20260506160338 13 148 3.2 3.2 0.00 0.69 0.69 63 1015.5
20260506155836 12 133 0.0 0.0 0.00 0.69 0.69 66 1015.2
20260506155333 12 163 1.6 3.2 0.00 0.69 0.69 69 1015.3
20260506153445 12 139 0.0 0.0 0.00 0.69 0.69 69 1015.2
20260506152942 12 117 1.6 1.6 0.00 0.69 0.69 66 1014.8
20260506152439 12 120 1.6 3.2 0.00 0.69 0.69 68 1014.8
20260506151938 12 287 3.2 3.2 0.00 0.69 0.69 70 1015.1
20260506151434 11 223 4.8 4.8 0.00 0.69 0.69 70 1014.9
20260506150932 11 138 0.0 1.6 0.00 0.69 0.69 70 1014.6
20260506150428 11 135 0.0 0.0 0.00 0.69 0.69 70 1014.8
20260506145925 11 135 1.6 1.6 0.00 0.69 0.69 70 1014.7
20260506145421 11 145 3.2 4.8 0.00 0.69 0.69 73 1014.7
20260506144919 11 92 3.2 4.8 0.00 0.69 0.69 74 1014.9
20260506144415 11 285 4.8 4.8 0.00 0.69 0.69 75 1014.8
20260506143914 10 144 0.0 0.0 0.00 0.69 0.69 78 1014.8
20260506143410 10 145 0.0 0.0 0.00 0.69 0.69 77 1014.9
20260506142909 10 284 1.6 4.8 0.00 0.69 0.69 80 1014.7
20260506142407 10 323 4.8 4.8 0.00 0.69 0.69 80 1014.4
20260506141904 10 224 3.2 4.8 0.00 0.69 0.69 80 1014.6
20260506141402 10 100 0.0 0.0 0.00 0.69 0.69 83 1014.3
20260506140900 10 120 0.0 1.6 0.00 0.69 0.69 83 1014.3
20260506140357 10 136 0.0 0.0 0.00 0.69 0.69 85 1013.9
20260506135854 10 116 1.6 3.2 0.00 0.69 0.69 85 1014.1
20260506135351 9 355 4.8 4.8 0.00 0.69 0.69 85 1014.4
20260506134847 9 120 0.0 1.6 0.00 0.69 0.69 86 1013.9
20260506134343 8 323 3.2 3.2 0.00 0.69 0.69 86 1014.1
20260506133840 9 128 0.0 1.6 0.00 0.69 0.69 90 1013.7
20260506133337 8 124 3.2 4.8 0.00 0.69 0.69 94 1013.8
20260506132833 7 148 0.0 0.0 0.00 0.69 0.69 98 1013.6
20260506132331 7 138 0.0 0.0 0.00 0.69 0.69 99 1013.6
20260506131829 7 126 1.6 3.2 0.00 0.69 0.69 99 1013.6
20260506131325 8 140 0.0 0.0 0.00 0.69 0.69 99 1013.9
20260506130822 7 110 0.0 0.0 0.00 0.69 0.69 99 1013.8
20260506130318 7 139 0.0 0.0 0.00 0.69 0.69 99 1013.9
20260506125816 7 116 0.0 0.0 0.00 0.69 0.69 99 1013.8
20260506125314 7 163 3.2 3.2 0.00 0.69 0.69 99 1014.1
20260506124813 7 239 3.2 4.8 0.00 0.69 0.69 99 1013.8
20260506124309 7 148 3.2 4.8 0.00 0.69 0.69 99 1013.6
20260506123807 7 356 3.2 4.8 0.00 0.69 0.69 99 1013.3
20260506123306 8 180 0.0 0.0 0.00 0.69 0.69 99 1013.2
20260506122802 8 88 0.0 0.0 0.00 0.69 0.69 99 1012.8
20260506122259 7 130 1.6 1.6 0.00 0.69 0.69 99 1012.8
20260506121757 7 160 0.0 0.0 0.00 0.69 0.69 99 1012.6
20260506121254 7 108 1.6 1.6 0.00 0.69 0.69 99 1012.6
20260506120751 7 38 3.2 3.2 0.00 0.69 0.69 99 1012.7
20260506120249 7 148 0.0 0.0 0.00 0.69 0.69 99 1012.9
20260506115746 7 140 0.0 0.0 0.00 0.69 0.69 99 1012.9
20260506115244 7 73 0.0 0.0 0.00 0.69 0.69 99 1012.4
20260506114742 7 111 0.0 0.0 0.00 0.69 0.69 99 1012.7
20260506114239 7 146 0.0 0.0 0.00 0.69 0.69 99 1012.9
20260506113738 7 136 0.0 0.0 0.00 0.69 0.69 99 1012.8
20260506113235 7 139 0.0 0.0 0.00 0.69 0.69 99 1012.8
20260506112731 7 140 0.0 0.0 0.00 0.69 0.69 99 1012.7
20260506112229 7 151 0.0 1.6 0.00 0.69 0.69 99 1012.2
20260506111726 7 145 1.6 1.6 0.00 0.69 0.69 99 1011.6
20260506111224 7 133 1.6 1.6 0.00 0.69 0.69 99 1011.6
20260506110721 7 135 3.2 3.2 0.00 0.69 0.69 99 1011.4
20260506110218 7 128 1.6 1.6 0.00 0.69 0.69 99 1011.6
20260506105714 7 51 0.0 0.0 0.00 0.69 0.69 99 1012.0
20260506105212 7 193 0.0 0.0 0.00 0.69 0.69 99 1011.6
20260506104710 7 127 0.0 0.0 0.00 0.69 0.69 99 1011.6
20260506104207 7 142 0.0 0.0 0.00 0.69 0.69 99 1011.9
20260506103704 7 155 0.0 0.0 0.00 0.69 0.69 99 1011.5
20260506103201 7 298 4.8 8.0 0.00 0.69 0.69 99 1011.8
20260506102659 7 132 0.0 0.0 0.00 0.69 0.69 99 1011.7
20260506102156 7 148 0.0 1.6 0.00 0.69 0.69 99 1011.7
20260506101653 7 142 0.0 0.0 0.00 0.69 0.69 99 1011.4
20260506101150 7 199 0.0 0.0 0.00 0.69 0.69 99 1011.2
20260506100648 7 151 0.0 0.0 0.00 0.69 0.69 99 1010.6
20260506100146 7 147 0.0 0.0 0.00 0.69 0.69 99 1010.5
20260506095644 7 194 0.0 1.6 0.00 0.69 0.69 99 1010.5
20260506095140 7 145 0.0 0.0 0.00 0.69 0.69 99 1010.8
20260506094638 7 141 0.0 0.0 0.00 0.69 0.69 99 1010.6
20260506094136 7 134 0.0 0.0 0.00 0.69 0.69 99 1010.3
20260506093634 7 96 4.8 4.8 0.00 0.69 0.69 99 1010.0
20260506093131 7 109 1.6 3.2 0.00 0.69 0.69 99 1010.3
20260506092629 7 141 3.2 3.2 0.00 0.69 0.69 99 1010.4
20260506092125 7 120 0.0 1.6 0.18 0.69 0.69 99 1010.9
20260506091623 7 262 3.2 3.2 0.18 0.69 0.69 99 1011.0
20260506091121 7 144 0.0 1.6 0.00 0.66 0.66 99 1010.8
20260506090619 7 157 0.0 0.0 0.00 0.66 0.66 99 1010.4
20260506090115 7 155 0.0 1.6 0.00 0.66 0.66 99 1010.2
20260506085612 7 320 8.0 11.3 0.13 0.66 0.66 99 1010.2
20260506085108 7 321 3.2 4.8 0.13 0.66 0.66 99 1010.5
20260506084605 7 139 0.0 0.0 0.00 0.64 0.64 99 1010.7
20260506084101 7 234 3.2 3.2 0.18 0.64 0.64 99 1010.7
20260506083558 7 149 0.0 0.0 0.30 0.64 0.64 99 1011.0
20260506083056 7 147 0.0 0.0 0.30 0.61 0.61 99 1010.7
20260506082552 7 321 3.2 8.0 0.30 0.58 0.58 99 1010.8
20260506082048 7 189 0.0 1.6 0.13 0.56 0.56 99 1010.5
20260506081546 7 132 0.0 1.6 0.30 0.56 0.56 99 1010.7
20260506081043 7 152 0.0 0.0 0.18 0.53 0.53 99 1010.5
20260506080541 7 311 4.8 4.8 0.00 0.51 0.51 99 1010.5
20260506073525 7 139 1.6 1.6 0.00 0.51 0.51 99 1010.0
20260506073022 7 132 0.0 1.6 0.18 0.51 0.51 99 1009.9
20260506072519 8 248 4.8 8.0 0.18 0.51 0.51 99 1009.8
20260506072016 8 130 0.0 0.0 0.13 0.48 0.48 99 1009.9
20260506071514 8 284 0.0 1.6 0.13 0.48 0.48 99 1010.0
20260506071011 8 125 0.0 0.0 0.18 0.46 0.46 99 1009.8
20260506070508 8 112 0.0 0.0 0.30 0.46 0.46 99 1010.0
20260506062445 8 359 4.8 9.7 0.30 0.28 0.28 99 1010.0
20260506061942 8 177 1.6 3.2 0.36 0.25 0.25 99 1009.9
20260506061438 9 133 0.0 1.6 0.30 0.23 0.23 99 1010.1
20260506060936 9 148 0.0 0.0 0.43 0.20 0.20 99 1010.1
20260506060434 9 94 1.6 3.2 0.30 0.18 0.18 99 1010.2
20260506051406 9 285 3.2 3.2 0.30 0.05 0.05 99 1010.0
20260506050903 9 147 0.0 0.0 0.18 0.03 0.03 99 1010.2
20260506050401 9 136 0.0 0.0 0.00 0.00 0.00 99 1010.2
20260506044851 9 133 0.0 0.0 0.00 0.00 0.00 99 1010.3
20260506044349 10 149 0.0 0.0 0.00 0.00 0.00 99 1010.2
20260506043846 10 151 3.2 4.8 0.00 0.00 0.00 99 1010.1
20260506043343 10 131 0.0 0.0 0.00 0.00 0.00 99 1010.2
20260506042841 10 142 0.0 0.0 0.00 0.00 0.00 99 1010.4
20260506042340 10 111 0.0 3.2 0.00 0.00 0.00 99 1010.2
20260506041838 10 141 0.0 0.0 0.00 0.00 0.00 99 1010.4
20260506041335 10 147 0.0 0.0 0.00 0.00 0.00 99 1010.2
20260506040832 10 139 0.0 0.0 0.00 0.00 0.00 99 1010.3
20260506040330 10 150 0.0 0.0 0.00 0.00 0.00 99 1010.4
20260506035825 10 145 0.0 0.0 0.00 1.35 1.35 99 1010.5
20260506035323 10 87 1.6 3.2 0.00 1.35 1.35 99 1010.6
20260506034820 10 113 0.0 1.6 0.13 1.35 1.35 99 1010.6
20260506034317 10 149 0.0 0.0 0.13 1.35 1.35 99 1010.6
20260506033814 10 105 0.0 1.6 0.18 1.32 1.32 99 1010.7
20260506033311 10 161 1.6 1.6 0.30 1.32 1.32 99 1010.4
20260506032808 10 172 0.0 0.0 0.30 1.30 1.30 99 1011.0
20260506032306 11 154 0.0 0.0 0.36 1.27 1.27 99 1011.0
20260506031801 11 136 0.0 0.0 0.48 1.24 1.24 99 1011.0
20260506031259 11 117 0.0 0.0 0.61 1.22 1.22 99 1011.0
20260506030757 11 115 1.6 1.6 0.61 1.17 1.17 99 1011.2
20260506030254 12 159 1.6 1.6 0.61 1.12 1.12 99 1011.2
20260506025751 12 197 0.0 0.0 0.61 1.09 1.09 99 1010.9
20260506025247 12 152 0.0 0.0 0.13 1.02 1.02 99 1011.1
20260506024744 14 133 0.0 0.0 0.18 0.99 0.99 99 1010.7
20260506024241 15 151 0.0 0.0 0.18 0.99 0.99 99 1010.7
20260506023737 15 144 0.0 0.0 0.13 0.97 0.97 99 1010.4
20260506023234 15 146 0.0 0.0 0.13 0.97 0.97 99 1010.4
20260506022731 15 139 0.0 0.0 0.18 0.94 0.94 99 1010.5
20260506022229 15 143 0.0 0.0 0.36 0.94 0.94 99 1010.8
20260506021727 15 143 0.0 0.0 0.30 0.91 0.91 99 1010.6
20260506021224 15 151 0.0 0.0 0.30 0.89 0.89 99 1010.5
20260506020720 15 140 0.0 0.0 0.30 0.86 0.86 99 1010.7
20260506020218 15 141 0.0 0.0 0.48 0.86 0.86 99 1010.5
20260506015715 15 142 0.0 0.0 0.48 0.81 0.81 99 1010.5
20260506015213 15 137 0.0 0.0 0.43 0.79 0.79 99 1010.8
20260506014710 15 141 0.0 0.0 0.48 0.76 0.76 99 1010.5
20260506014206 15 142 0.0 0.0 0.30 0.71 0.71 99 1010.4
20260506013704 15 148 0.0 0.0 0.30 0.69 0.69 99 1010.7
20260506013201 15 141 0.0 0.0 0.30 0.66 0.66 99 1010.6
20260506012657 15 142 0.0 0.0 0.13 0.64 0.64 99 1010.5
20260506012154 15 141 0.0 0.0 0.18 0.61 0.61 99 1010.3
20260506011651 15 141 0.0 0.0 0.18 0.61 0.61 99 1010.1
20260506011147 15 141 0.0 0.0 0.00 0.58 0.58 99 1010.1
20260506010646 15 141 0.0 0.0 0.00 0.58 0.58 99 1010.2
20260506010143 15 149 0.0 0.0 0.00 0.58 0.58 99 1010.1
20260506005639 15 140 0.0 0.0 0.00 0.58 0.58 99 1010.1
20260506005136 15 139 0.0 0.0 0.18 0.58 0.58 99 1010.1
20260506004632 15 146 0.0 0.0 0.18 0.58 0.58 99 1010.2
20260506004130 15 144 0.0 0.0 0.13 0.56 0.56 99 1010.0
20260506003626 15 145 0.0 0.0 0.13 0.56 0.56 99 1010.0
20260506003122 15 144 0.0 0.0 0.00 0.53 0.53 99 1010.2
20260506002619 15 144 0.0 0.0 0.00 0.53 0.53 99 1010.3
20260506002114 15 146 0.0 0.0 0.00 0.53 0.53 99 1010.2
20260506001611 15 135 0.0 0.0 0.18 0.53 0.53 99 1010.0
20260506001108 15 159 0.0 0.0 0.18 0.53 0.53 99 1010.0
20260506000606 15 143 0.0 0.0 0.13 0.51 0.51 99 1010.2
20260505235601 15 143 0.0 0.0 0.18 0.48 0.48 99 1010.2